This is the latest recevied weather packets stored in our database for station/object IK2YOU-3. If no packets are shown the sender has not sent any weather packets the latest 10 day(s).
| Time | Temp. | Humidity | Pressure | Rain* | Wind** | Luminosity | Snow |
|---|---|---|---|---|---|---|---|
| 1778069644 | 20° C | 81% | 1005 hPa | 0 mm | - | 246 W/m² | - |
| 1778069045 | 20° C | 81% | 1005.2 hPa | 0 mm | - | 410 W/m² | - |
| 1778068573 | 19.44° C | 83% | 1005.3 hPa | 0 mm | - | 169 W/m² | - |
| 1778067974 | 19.44° C | 83% | 1005.4 hPa | 0 mm | - | 649 W/m² | - |
| 1778067246 | 19.44° C | 83% | 1005.6 hPa | 0 mm | - | 197 W/m² | - |
| 1778066645 | 18.33° C | 85% | 1005.5 hPa | 0 mm | - | 450 W/m² | - |
| 1778066045 | 17.78° C | 85% | 1005.6 hPa | 0 mm | - | 321 W/m² | - |
| 1778065572 | 17.22° C | 85% | 1005.8 hPa | 0 mm | - | 172 W/m² | - |
| 1778064845 | 17.22° C | 85% | 1005.7 hPa | 0 mm | - | 143 W/m² | - |
| 1778064245 | 17.22° C | 84% | 1005.8 hPa | 0 mm | - | 143 W/m² | - |
| 1778063658 | 17.78° C | 84% | 1005.8 hPa | 0 mm | - | 212 W/m² | - |
| 1778063045 | 17.78° C | 84% | 1005.8 hPa | 0 mm | - | 319 W/m² | - |
| 1778062446 | 17.22° C | 85% | 1005.9 hPa | 0 mm | - | 576 W/m² | - |
| 1778061846 | 17.78° C | 83% | 1005.9 hPa | 0 mm | - | 229 W/m² | - |
| 1778061261 | 17.22° C | 81% | 1005.8 hPa | 0 mm | - | 357 W/m² | - |
| 1778060645 | 17.22° C | 76% | 1005.7 hPa | 0 mm | - | 581 W/m² | - |
| 1778060044 | 16.11° C | 72% | 1005.8 hPa | 0.25 mm | - | 284 W/m² | - |
| 1778059445 | 16.11° C | 68% | 1005.9 hPa | 1.02 mm | - | 346 W/m² | - |
| 1778058845 | 15.56° C | 68% | 1005.8 hPa | 2.29 mm | - | 131 W/m² | - |
| 1778058374 | 15° C | 68% | 1005.8 hPa | 3.3 mm | - | 248 W/m² | - |
| 1778057646 | 14.44° C | 68% | 1005.8 hPa | 4.06 mm | - | 130 W/m² | - |
| 1778057046 | 14.44° C | 69% | 1006.2 hPa | 4.06 mm | - | 77 W/m² | - |
| 1778056446 | 14.44° C | 72% | 1006.1 hPa | 3.81 mm | - | 89 W/m² | - |
| 1778055845 | 14.44° C | 72% | 1006.4 hPa | 3.05 mm | - | 51 W/m² | - |
| 1778055245 | 14.44° C | 73% | 1006.2 hPa | 1.78 mm | - | 22 W/m² | - |
* Rain latest hour (hover to see other rain measurements)
** Current wind speed in m/s (hover to see current wind gust speed)